Погода в Владимировке

Россия / Республика Тыва     50°59′54″N   95°18′27″E
темп.,
°C
ветер,
м/с
пор.,
м/с
влажн.,
%
обл.,
%
осадки,
мм/ч
давл.,
гПа
погр.,
м
29 января, сб
сб2901:00−31вюв119927 0.0 104810
04:00−32вюв119922 0.0 10509
07:00−33в1110026 0.0 105110
10:00−27ссв119523 0.0 104864
13:00−19с118413 0.0 1044264
16:00−19ссз2288100 0.0 1043173
19:00−28юв019892 0.0 104912
22:00−31вюв119922 0.0 105112
30 января, вс
вс3001:00−32в1110032 0.0 105211
04:00−33в1110044 0.0 105311
07:00−32всв1110080 0.0 105312
10:00−26ссв119214 0.0 105073
13:00−19с218312 0.0 1046275
16:00−18с128412 0.0 1044181
19:00−29вюв119815 0.0 105011
22:00−30вюв119822 0.0 105112
31 января, пн
пн3101:00−31в119922 0.0 105112
04:00−32в119922 0.0 105111
07:00−33всв119922 0.0 105211
10:00−26ссв11925 0.0 104970
13:00−19с218212 0.0 1044278
16:00−18ссз228412 0.0 1043198
19:00−29юв119827 0.0 105011
22:00−31вюв119923 0.0 105111
1 февраля, вт
вт101:00−32в119923 0.0 105210
04:00−33в1110023 0.0 105310
07:00−33в1110019 0.0 105410
10:00−26ссв119412 0.0 105171
13:00−19ссз218131 0.0 1046288
16:00−18ссз228431 0.0 1045191
19:00−30ююв019922 0.0 105210
22:00−31вюв119919 0.0 10549
2 февраля, ср
ср201:00−32в119929 0.0 105510
04:00−33в1110051 0.0 10559
07:00−34в1110020 0.0 10569
10:00−27с119437 0.0 105273
13:00−19ссз118432 0.0 1047269
16:00−18сз118632 0.0 1045183
19:00−29ююв019926 0.0 105110
22:00−32вюв119923 0.0 105210